Year,Month,Day,Hour,Minute,Value (Times are PST for temperature in C)
2013,07,14,00,00,10.60
2013,07,14,00,01,10.60
2013,07,14,00,02,10.60
2013,07,14,00,03,10.60
2013,07,14,00,04,10.60
2013,07,14,00,05,10.60
2013,07,14,00,06,10.60
2013,07,14,00,07,10.60
2013,07,14,00,08,10.50
2013,07,14,00,09,10.40
2013,07,14,00,10,10.40
2013,07,14,00,11,10.40
2013,07,14,00,12,10.40
2013,07,14,00,13,10.40
2013,07,14,00,14,10.40
2013,07,14,00,15,10.40
2013,07,14,00,16,10.40
2013,07,14,00,17,10.40
2013,07,14,00,18,10.40
2013,07,14,00,19,10.40
2013,07,14,00,20,10.40
2013,07,14,00,21,10.40
2013,07,14,00,22,10.40
2013,07,14,00,23,10.40
2013,07,14,00,24,10.40
2013,07,14,00,25,10.40
2013,07,14,00,26,10.40
2013,07,14,00,27,10.40
2013,07,14,00,28,10.40
2013,07,14,00,29,10.40
2013,07,14,00,30,10.40
2013,07,14,00,31,10.40
2013,07,14,00,32,10.40
2013,07,14,00,33,10.40
2013,07,14,00,34,10.40
2013,07,14,00,35,10.40
2013,07,14,00,36,10.40
2013,07,14,00,37,10.40
2013,07,14,00,38,10.40
2013,07,14,00,39,10.40
2013,07,14,00,40,10.40
2013,07,14,00,41,10.40
2013,07,14,00,42,10.40
2013,07,14,00,43,10.40
2013,07,14,00,44,10.40
2013,07,14,00,45,10.40
2013,07,14,00,46,10.40
2013,07,14,00,47,10.40
2013,07,14,00,48,10.40
2013,07,14,00,49,10.40
2013,07,14,00,50,10.40
2013,07,14,00,51,10.40
2013,07,14,00,52,10.30
2013,07,14,00,53,10.30
2013,07,14,00,54,10.30
2013,07,14,00,55,10.30
2013,07,14,00,56,10.30
2013,07,14,00,57,10.30
2013,07,14,00,58,10.20
2013,07,14,00,59,10.20
2013,07,14,01,00,10.20
2013,07,14,01,01,10.10
2013,07,14,01,02,10.10
2013,07,14,01,03,10.10
2013,07,14,01,04,10.10
2013,07,14,01,05,10.10
2013,07,14,01,06,10.10
2013,07,14,01,07,10.10
2013,07,14,01,08,10.10
2013,07,14,01,09,10.00
2013,07,14,01,10,9.90
2013,07,14,01,11,9.90
2013,07,14,01,12,9.90
2013,07,14,01,13,9.90
2013,07,14,01,14,9.90
2013,07,14,01,15,9.90
2013,07,14,01,16,10.00
2013,07,14,01,17,10.10
2013,07,14,01,18,10.10
2013,07,14,01,19,10.10
2013,07,14,01,20,10.10
2013,07,14,01,21,10.10
2013,07,14,01,22,10.10
2013,07,14,01,23,10.10
2013,07,14,01,24,10.10
2013,07,14,01,25,10.10
2013,07,14,01,26,10.10
2013,07,14,01,27,10.10
2013,07,14,01,28,10.10
2013,07,14,01,29,10.10
2013,07,14,01,30,10.10
2013,07,14,01,31,10.10
2013,07,14,01,32,10.00
2013,07,14,01,33,9.90
2013,07,14,01,34,9.90
2013,07,14,01,35,9.90
2013,07,14,01,36,9.90
2013,07,14,01,37,9.90
2013,07,14,01,38,9.90
2013,07,14,01,39,9.80
2013,07,14,01,40,9.80
2013,07,14,01,41,9.80
2013,07,14,01,42,9.90
2013,07,14,01,43,9.90
2013,07,14,01,44,9.90
2013,07,14,01,45,9.90
2013,07,14,01,46,9.90
2013,07,14,01,47,9.90
2013,07,14,01,48,9.90
2013,07,14,01,49,9.90
2013,07,14,01,50,9.80
2013,07,14,01,51,9.80
2013,07,14,01,52,9.80
2013,07,14,01,53,9.80
2013,07,14,01,54,9.80
2013,07,14,01,55,9.80
2013,07,14,01,56,9.80
2013,07,14,01,57,9.80
2013,07,14,01,58,9.80
2013,07,14,01,59,9.80
2013,07,14,02,00,9.70
2013,07,14,02,01,9.70
2013,07,14,02,02,9.70
2013,07,14,02,03,9.70
2013,07,14,02,04,9.80
2013,07,14,02,05,9.80
2013,07,14,02,06,9.90
2013,07,14,02,07,9.90
2013,07,14,02,08,9.90
2013,07,14,02,09,9.90
2013,07,14,02,10,9.80
2013,07,14,02,11,9.80
2013,07,14,02,12,9.80
2013,07,14,02,13,9.80
2013,07,14,02,14,9.80
2013,07,14,02,15,9.80
2013,07,14,02,16,9.80
2013,07,14,02,17,9.70
2013,07,14,02,18,9.70
2013,07,14,02,19,9.80
2013,07,14,02,20,9.80
2013,07,14,02,21,9.80
2013,07,14,02,22,9.80
2013,07,14,02,23,9.80
2013,07,14,02,24,9.80
2013,07,14,02,25,9.80
2013,07,14,02,26,9.70
2013,07,14,02,27,9.70
2013,07,14,02,28,9.70
2013,07,14,02,29,9.70
2013,07,14,02,30,9.70
2013,07,14,02,31,9.70
2013,07,14,02,32,9.70
2013,07,14,02,33,9.70
2013,07,14,02,34,9.70
2013,07,14,02,35,9.70
2013,07,14,02,36,9.70
2013,07,14,02,37,9.70
2013,07,14,02,38,9.70
2013,07,14,02,39,9.70
2013,07,14,02,40,9.70
2013,07,14,02,41,9.70
2013,07,14,02,42,9.70
2013,07,14,02,43,9.70
2013,07,14,02,44,9.70
2013,07,14,02,45,9.70
2013,07,14,02,46,9.70
2013,07,14,02,47,9.70
2013,07,14,02,48,9.70
2013,07,14,02,49,9.70
2013,07,14,02,50,9.70
2013,07,14,02,51,9.70
2013,07,14,02,52,9.70
2013,07,14,02,53,9.60
2013,07,14,02,54,9.60
2013,07,14,02,55,9.60
2013,07,14,02,56,9.60
2013,07,14,02,57,9.60
2013,07,14,02,58,9.60
2013,07,14,02,59,9.60
2013,07,14,03,00,9.60
2013,07,14,03,01,9.70
2013,07,14,03,02,9.70
2013,07,14,03,03,9.70
2013,07,14,03,04,9.70
2013,07,14,03,05,9.70
2013,07,14,03,06,9.70
2013,07,14,03,07,9.70
2013,07,14,03,08,9.70
2013,07,14,03,09,9.70
2013,07,14,03,10,9.60
2013,07,14,03,11,9.60
2013,07,14,03,12,9.50
2013,07,14,03,13,9.50
2013,07,14,03,14,9.40
2013,07,14,03,15,9.40
2013,07,14,03,16,9.40
2013,07,14,03,17,9.30
2013,07,14,03,18,9.30
2013,07,14,03,19,9.30
2013,07,14,03,20,9.30
2013,07,14,03,21,9.20
2013,07,14,03,22,9.20
2013,07,14,03,23,9.20
2013,07,14,03,24,9.20
2013,07,14,03,25,9.20
2013,07,14,03,26,9.20
2013,07,14,03,27,9.30
2013,07,14,03,28,9.30
2013,07,14,03,29,9.30
2013,07,14,03,30,9.40
2013,07,14,03,31,9.40
2013,07,14,03,32,9.40
2013,07,14,03,33,9.50
2013,07,14,03,34,9.50
2013,07,14,03,35,9.50
2013,07,14,03,36,9.50
2013,07,14,03,37,9.50
2013,07,14,03,38,9.50
2013,07,14,03,39,9.50
2013,07,14,03,40,9.50
2013,07,14,03,41,9.50
2013,07,14,03,42,9.50
2013,07,14,03,43,9.50
2013,07,14,03,44,9.50
2013,07,14,03,45,9.50
2013,07,14,03,46,9.40
2013,07,14,03,47,9.40
2013,07,14,03,48,9.40
2013,07,14,03,49,9.40
2013,07,14,03,50,9.40
2013,07,14,03,51,9.40
2013,07,14,03,52,9.40
2013,07,14,03,53,9.40
2013,07,14,03,54,9.50
2013,07,14,03,55,9.50
2013,07,14,03,56,9.50
2013,07,14,03,57,9.50
2013,07,14,03,58,9.50
2013,07,14,03,59,9.50
2013,07,14,04,00,9.50
2013,07,14,04,01,9.50
2013,07,14,04,02,9.50
2013,07,14,04,03,9.50
2013,07,14,04,04,9.50
2013,07,14,04,05,9.50
2013,07,14,04,06,9.50
2013,07,14,04,07,9.50
2013,07,14,04,08,9.50
2013,07,14,04,09,9.50
2013,07,14,04,10,9.50
2013,07,14,04,11,9.50
2013,07,14,04,12,9.50
2013,07,14,04,13,9.40
2013,07,14,04,14,9.40
2013,07,14,04,15,9.40
2013,07,14,04,16,9.40
2013,07,14,04,17,9.40
2013,07,14,04,18,9.40
2013,07,14,04,19,9.40
2013,07,14,04,20,9.40
2013,07,14,04,21,9.40
2013,07,14,04,22,9.40
2013,07,14,04,23,9.40
2013,07,14,04,24,9.40
2013,07,14,04,25,9.40
2013,07,14,04,26,9.40
2013,07,14,04,27,9.40
2013,07,14,04,28,9.40
2013,07,14,04,29,9.40
2013,07,14,04,30,9.40
2013,07,14,04,31,9.40
2013,07,14,04,32,9.40
2013,07,14,04,33,9.40
2013,07,14,04,34,9.40
2013,07,14,04,35,9.40
2013,07,14,04,36,9.40
2013,07,14,04,37,9.40
2013,07,14,04,38,9.40
2013,07,14,04,39,9.40
2013,07,14,04,40,9.40
2013,07,14,04,41,9.40
2013,07,14,04,42,9.30
2013,07,14,04,43,9.30
2013,07,14,04,44,9.30
2013,07,14,04,45,9.20
2013,07,14,04,46,9.20
2013,07,14,04,47,9.20
2013,07,14,04,48,9.20
2013,07,14,04,49,9.10
2013,07,14,04,50,9.10
2013,07,14,04,51,9.10
2013,07,14,04,52,9.00
2013,07,14,04,53,9.00
2013,07,14,04,54,9.00
2013,07,14,04,55,9.00
2013,07,14,04,56,8.90
2013,07,14,04,57,8.90
2013,07,14,04,58,8.90
2013,07,14,04,59,8.90
2013,07,14,05,00,8.80
2013,07,14,05,01,8.80
2013,07,14,05,02,8.80
2013,07,14,05,03,8.80
2013,07,14,05,04,8.80
2013,07,14,05,05,8.80
2013,07,14,05,06,8.80
2013,07,14,05,07,8.90
2013,07,14,05,08,8.90
2013,07,14,05,09,8.90
2013,07,14,05,10,8.90
2013,07,14,05,11,8.90
2013,07,14,05,12,8.90
2013,07,14,05,13,8.90
2013,07,14,05,14,8.90
2013,07,14,05,15,8.90
2013,07,14,05,16,8.90
2013,07,14,05,17,8.90
2013,07,14,05,18,8.90
2013,07,14,05,19,8.90
2013,07,14,05,20,8.90
2013,07,14,05,21,9.00
2013,07,14,05,22,9.00
2013,07,14,05,23,9.10
2013,07,14,05,24,9.10
2013,07,14,05,25,9.20
2013,07,14,05,26,9.20
2013,07,14,05,27,9.20
2013,07,14,05,28,9.20
2013,07,14,05,29,9.20
2013,07,14,05,30,9.20
2013,07,14,05,31,9.20
2013,07,14,05,32,9.20
2013,07,14,05,33,9.10
2013,07,14,05,34,9.10
2013,07,14,05,35,9.10
2013,07,14,05,36,9.10
2013,07,14,05,37,9.00
2013,07,14,05,38,9.00
2013,07,14,05,39,9.00
2013,07,14,05,40,9.00
2013,07,14,05,41,9.00
2013,07,14,05,42,9.10
2013,07,14,05,43,9.10
2013,07,14,05,44,9.20
2013,07,14,05,45,9.20
2013,07,14,05,46,9.20
2013,07,14,05,47,9.20
2013,07,14,05,48,9.20
2013,07,14,05,49,9.20
2013,07,14,05,50,9.20
2013,07,14,05,51,9.20
2013,07,14,05,52,9.20
2013,07,14,05,53,9.20
2013,07,14,05,54,9.20
2013,07,14,05,55,9.20
2013,07,14,05,56,9.20
2013,07,14,05,57,9.20
2013,07,14,05,58,9.20
2013,07,14,05,59,9.20
2013,07,14,06,00,9.20
2013,07,14,06,01,9.20
2013,07,14,06,02,9.20
2013,07,14,06,03,9.20
2013,07,14,06,04,9.20
2013,07,14,06,05,9.20
2013,07,14,06,06,9.20
2013,07,14,06,07,9.20
2013,07,14,06,08,9.20
2013,07,14,06,09,9.20
2013,07,14,06,10,9.20
2013,07,14,06,11,9.20
2013,07,14,06,12,9.30
2013,07,14,06,13,9.30
2013,07,14,06,14,9.30
2013,07,14,06,15,9.30
2013,07,14,06,16,9.40
2013,07,14,06,17,9.40
2013,07,14,06,18,9.40
2013,07,14,06,19,9.50
2013,07,14,06,20,9.50
2013,07,14,06,21,9.50
2013,07,14,06,22,9.50
2013,07,14,06,23,9.60
2013,07,14,06,24,9.60
2013,07,14,06,25,9.70
2013,07,14,06,26,9.70
2013,07,14,06,27,9.70
2013,07,14,06,28,9.70
2013,07,14,06,29,9.70
2013,07,14,06,30,9.70
2013,07,14,06,31,9.70
2013,07,14,06,32,9.80
2013,07,14,06,33,9.80
2013,07,14,06,34,9.90
2013,07,14,06,35,10.00
2013,07,14,06,36,10.10
2013,07,14,06,37,10.20
2013,07,14,06,38,10.30
2013,07,14,06,39,10.40
2013,07,14,06,40,10.40
2013,07,14,06,41,10.40
2013,07,14,06,42,10.40
2013,07,14,06,43,10.40
2013,07,14,06,44,10.40
2013,07,14,06,45,10.40
2013,07,14,06,46,10.40
2013,07,14,06,47,10.40
2013,07,14,06,48,10.60
2013,07,14,06,49,10.60
2013,07,14,06,50,10.70
2013,07,14,06,51,10.70
2013,07,14,06,52,10.80
2013,07,14,06,53,10.80
2013,07,14,06,54,10.80
2013,07,14,06,55,10.90
2013,07,14,06,56,10.90
2013,07,14,06,57,10.90
2013,07,14,06,58,10.90
2013,07,14,06,59,10.80
2013,07,14,07,00,10.80
2013,07,14,07,01,10.70
2013,07,14,07,02,10.70
2013,07,14,07,03,10.70
2013,07,14,07,04,10.70
2013,07,14,07,05,10.70
2013,07,14,07,06,10.60
2013,07,14,07,07,10.60
2013,07,14,07,08,10.60
2013,07,14,07,09,10.60
2013,07,14,07,10,10.50
2013,07,14,07,11,10.40
2013,07,14,07,12,10.40
2013,07,14,07,13,10.40
2013,07,14,07,14,10.40
2013,07,14,07,15,10.40
2013,07,14,07,16,10.40
2013,07,14,07,17,10.40
2013,07,14,07,18,10.40
2013,07,14,07,19,10.40
2013,07,14,07,20,10.40
2013,07,14,07,21,10.50
2013,07,14,07,22,10.60
2013,07,14,07,23,10.60
2013,07,14,07,24,10.60
2013,07,14,07,25,10.60
2013,07,14,07,26,10.60
2013,07,14,07,27,10.60
2013,07,14,07,28,10.70
2013,07,14,07,29,10.80
2013,07,14,07,30,10.80
2013,07,14,07,31,10.90
2013,07,14,07,32,10.90
2013,07,14,07,33,11.00
2013,07,14,07,34,11.10
2013,07,14,07,35,11.20
2013,07,14,07,36,11.30
2013,07,14,07,37,11.40
2013,07,14,07,38,11.40
2013,07,14,07,39,11.60
2013,07,14,07,40,11.70
2013,07,14,07,41,11.80
2013,07,14,07,42,11.80
2013,07,14,07,43,11.90
2013,07,14,07,44,12.00
2013,07,14,07,45,12.00
2013,07,14,07,46,12.10
2013,07,14,07,47,12.20
2013,07,14,07,48,12.30
2013,07,14,07,49,12.30
2013,07,14,07,50,12.30
2013,07,14,07,51,12.30
2013,07,14,07,52,12.40
2013,07,14,07,53,12.50
2013,07,14,07,54,12.50
2013,07,14,07,55,12.50
2013,07,14,07,56,12.40
2013,07,14,07,57,12.40
2013,07,14,07,58,12.40
2013,07,14,07,59,12.40
2013,07,14,08,00,12.40
2013,07,14,08,01,12.50
2013,07,14,08,02,12.50
2013,07,14,08,03,12.60
2013,07,14,08,04,12.70
2013,07,14,08,05,12.80
2013,07,14,08,06,12.80
2013,07,14,08,07,12.80
2013,07,14,08,08,12.70
2013,07,14,08,09,12.60
2013,07,14,08,10,12.40
2013,07,14,08,11,12.20
2013,07,14,08,12,12.10
2013,07,14,08,13,12.00
2013,07,14,08,14,11.90
2013,07,14,08,15,11.80
2013,07,14,08,16,11.80
2013,07,14,08,17,11.80
2013,07,14,08,18,11.70
2013,07,14,08,19,11.60
2013,07,14,08,20,11.60
2013,07,14,08,21,11.60
2013,07,14,08,22,11.60
2013,07,14,08,23,11.60
2013,07,14,08,24,11.60
2013,07,14,08,25,11.60
2013,07,14,08,26,11.60
2013,07,14,08,27,11.60
2013,07,14,08,28,11.60
2013,07,14,08,29,11.50
2013,07,14,08,30,11.40
2013,07,14,08,31,11.40
2013,07,14,08,32,11.40
2013,07,14,08,33,11.40
2013,07,14,08,34,11.40
2013,07,14,08,35,11.40
2013,07,14,08,36,11.60
2013,07,14,08,37,11.60
2013,07,14,08,38,11.70
2013,07,14,08,39,11.70
2013,07,14,08,40,11.80
2013,07,14,08,41,11.80
2013,07,14,08,42,11.80
2013,07,14,08,43,11.80
2013,07,14,08,44,11.80
2013,07,14,08,45,11.90
2013,07,14,08,46,11.90
2013,07,14,08,47,11.90
2013,07,14,08,48,12.00
2013,07,14,08,49,12.00
2013,07,14,08,50,12.10
2013,07,14,08,51,12.10
2013,07,14,08,52,12.20
2013,07,14,08,53,12.30
2013,07,14,08,54,12.30
2013,07,14,08,55,12.30
2013,07,14,08,56,12.30
2013,07,14,08,57,12.30
2013,07,14,08,58,12.30
2013,07,14,08,59,12.30
2013,07,14,09,00,12.30
2013,07,14,09,01,12.40
2013,07,14,09,02,12.40
2013,07,14,09,03,12.40
2013,07,14,09,04,12.40
2013,07,14,09,05,12.30
2013,07,14,09,06,12.30
2013,07,14,09,07,12.40
2013,07,14,09,08,12.30
2013,07,14,09,09,12.40
2013,07,14,09,10,12.40
2013,07,14,09,11,12.40
2013,07,14,09,12,12.50
2013,07,14,09,13,12.50
2013,07,14,09,14,12.50
2013,07,14,09,15,12.50
2013,07,14,09,16,12.60
2013,07,14,09,17,12.70
2013,07,14,09,18,12.70
2013,07,14,09,19,12.80
2013,07,14,09,20,12.80
2013,07,14,09,21,12.80
2013,07,14,09,22,12.80
2013,07,14,09,23,12.80
2013,07,14,09,24,12.80
2013,07,14,09,25,12.80
2013,07,14,09,26,12.80
2013,07,14,09,27,12.80
2013,07,14,09,28,12.80
2013,07,14,09,29,12.80
2013,07,14,09,30,12.80
2013,07,14,09,31,12.80
2013,07,14,09,32,12.80
2013,07,14,09,33,12.80
2013,07,14,09,34,12.80
2013,07,14,09,35,12.80
2013,07,14,09,36,12.80
2013,07,14,09,37,12.80
2013,07,14,09,38,12.80
2013,07,14,09,39,12.90
2013,07,14,09,40,12.90
2013,07,14,09,41,13.00
2013,07,14,09,42,13.00
2013,07,14,09,43,13.10
2013,07,14,09,44,13.20
2013,07,14,09,45,13.30
2013,07,14,09,46,13.30
2013,07,14,09,47,13.40
2013,07,14,09,48,13.50
2013,07,14,09,49,13.60
2013,07,14,09,50,13.70
2013,07,14,09,51,13.80
2013,07,14,09,52,13.90
2013,07,14,09,53,14.00
2013,07,14,09,54,14.00
2013,07,14,09,55,14.10
2013,07,14,09,56,14.00
2013,07,14,09,57,14.00
2013,07,14,09,58,14.00
2013,07,14,09,59,14.10
2013,07,14,10,00,14.10
2013,07,14,10,01,14.10
2013,07,14,10,02,14.20
2013,07,14,10,03,14.20
2013,07,14,10,04,14.10
2013,07,14,10,05,14.10
2013,07,14,10,06,14.10
2013,07,14,10,07,14.10
2013,07,14,10,08,14.20
2013,07,14,10,09,14.20
2013,07,14,10,10,14.10
2013,07,14,10,11,14.10
2013,07,14,10,12,14.10
2013,07,14,10,13,14.20
2013,07,14,10,14,14.20
2013,07,14,10,15,14.20
2013,07,14,10,16,14.30
2013,07,14,10,17,14.30
2013,07,14,10,18,14.40
2013,07,14,10,19,14.50
2013,07,14,10,20,14.60
2013,07,14,10,21,14.60
2013,07,14,10,22,14.70
2013,07,14,10,23,14.70
2013,07,14,10,24,14.70
2013,07,14,10,25,14.70
2013,07,14,10,26,14.60
2013,07,14,10,27,14.60
2013,07,14,10,28,14.60
2013,07,14,10,29,14.60
2013,07,14,10,30,14.60
2013,07,14,10,31,14.70
2013,07,14,10,32,14.80
2013,07,14,10,33,14.90
2013,07,14,10,34,15.00
2013,07,14,10,35,15.00
2013,07,14,10,36,15.10
2013,07,14,10,37,15.20
2013,07,14,10,38,15.30
2013,07,14,10,39,15.40
2013,07,14,10,40,15.40
2013,07,14,10,41,15.40
2013,07,14,10,42,15.40
2013,07,14,10,43,15.30
2013,07,14,10,44,15.30
2013,07,14,10,45,15.40
2013,07,14,10,46,15.40
2013,07,14,10,47,15.40
2013,07,14,10,48,15.50
2013,07,14,10,49,15.40
2013,07,14,10,50,15.40
2013,07,14,10,51,15.40
2013,07,14,10,52,15.40
2013,07,14,10,53,15.30
2013,07,14,10,54,15.30
2013,07,14,10,55,15.30
2013,07,14,10,56,15.30
2013,07,14,10,57,15.30
2013,07,14,10,58,15.30
2013,07,14,10,59,15.30
2013,07,14,11,00,15.30
2013,07,14,11,01,15.30
2013,07,14,11,02,15.30
2013,07,14,11,03,15.20
2013,07,14,11,04,15.20
2013,07,14,11,05,15.20
2013,07,14,11,06,15.10
2013,07,14,11,07,15.00
2013,07,14,11,08,14.90
2013,07,14,11,09,14.90
2013,07,14,11,10,14.90
2013,07,14,11,11,14.90
2013,07,14,11,12,14.90
2013,07,14,11,13,14.90
2013,07,14,11,14,14.90
2013,07,14,11,15,14.90
2013,07,14,11,16,14.80
2013,07,14,11,17,14.90
2013,07,14,11,18,14.80
2013,07,14,11,19,14.90
2013,07,14,11,20,14.90
2013,07,14,11,21,14.90
2013,07,14,11,22,14.80
2013,07,14,11,23,14.70
2013,07,14,11,24,14.60
2013,07,14,11,25,14.60
2013,07,14,11,26,14.60
2013,07,14,11,27,14.60
2013,07,14,11,28,14.60
2013,07,14,11,29,14.50
2013,07,14,11,30,14.40
2013,07,14,11,31,14.40
2013,07,14,11,32,14.30
2013,07,14,11,33,14.30
2013,07,14,11,34,14.30
2013,07,14,11,35,14.20
2013,07,14,11,36,14.20
2013,07,14,11,37,14.20
2013,07,14,11,38,14.20
2013,07,14,11,39,14.20
2013,07,14,11,40,14.30
2013,07,14,11,41,14.20
2013,07,14,11,42,14.20
2013,07,14,11,43,14.30
2013,07,14,11,44,14.60
2013,07,14,11,45,14.80
2013,07,14,11,46,15.00
2013,07,14,11,47,15.20
2013,07,14,11,48,15.30
2013,07,14,11,49,15.20
2013,07,14,11,50,15.10
2013,07,14,11,51,15.10
2013,07,14,11,52,15.10
2013,07,14,11,53,15.10
2013,07,14,11,54,15.10
2013,07,14,11,55,15.10
2013,07,14,11,56,15.10
2013,07,14,11,57,15.00
2013,07,14,11,58,15.00
2013,07,14,11,59,15.10
2013,07,14,12,00,15.10
2013,07,14,12,01,15.30
2013,07,14,12,02,15.30
2013,07,14,12,03,15.50
2013,07,14,12,04,15.60
2013,07,14,12,05,15.60
2013,07,14,12,06,15.70
2013,07,14,12,07,15.80
2013,07,14,12,08,15.70
2013,07,14,12,09,15.80
2013,07,14,12,10,15.80
2013,07,14,12,11,15.80
2013,07,14,12,12,15.90
2013,07,14,12,13,15.90
2013,07,14,12,14,15.90
2013,07,14,12,15,15.90
2013,07,14,12,16,16.00
2013,07,14,12,17,16.10
2013,07,14,12,18,16.30
2013,07,14,12,19,16.40
2013,07,14,12,20,16.40
2013,07,14,12,21,16.50
2013,07,14,12,22,16.70
2013,07,14,12,23,16.80
2013,07,14,12,24,16.90
2013,07,14,12,25,16.90
2013,07,14,12,26,16.90
2013,07,14,12,27,16.90
2013,07,14,12,28,16.90
2013,07,14,12,29,16.90
2013,07,14,12,30,17.00
2013,07,14,12,31,17.00
2013,07,14,12,32,17.00
2013,07,14,12,33,17.20
2013,07,14,12,34,17.30
2013,07,14,12,35,17.20
2013,07,14,12,36,17.00
2013,07,14,12,37,17.10
2013,07,14,12,38,17.30
2013,07,14,12,39,17.50
2013,07,14,12,40,17.70
2013,07,14,12,41,17.80
2013,07,14,12,42,18.00
2013,07,14,12,43,18.30
2013,07,14,12,44,18.60
2013,07,14,12,45,18.90
2013,07,14,12,46,19.10
2013,07,14,12,47,19.30
2013,07,14,12,48,19.50
2013,07,14,12,49,19.70
2013,07,14,12,50,19.80
2013,07,14,12,51,19.90
2013,07,14,12,52,20.00
2013,07,14,12,53,20.10
2013,07,14,12,54,20.10
2013,07,14,12,55,20.00
2013,07,14,12,56,19.90
2013,07,14,12,57,19.90
2013,07,14,12,58,20.10
2013,07,14,12,59,20.10
2013,07,14,13,00,20.20
2013,07,14,13,01,20.20
2013,07,14,13,02,20.30
2013,07,14,13,03,20.50
2013,07,14,13,04,20.70
2013,07,14,13,05,20.70
2013,07,14,13,06,20.70
2013,07,14,13,07,20.70
2013,07,14,13,08,20.70
2013,07,14,13,09,20.60
2013,07,14,13,10,20.60
2013,07,14,13,11,20.70
2013,07,14,13,12,20.70
2013,07,14,13,13,20.70
2013,07,14,13,14,20.80
2013,07,14,13,15,20.90
2013,07,14,13,16,21.00
2013,07,14,13,17,21.10
2013,07,14,13,18,21.10
2013,07,14,13,19,21.10
2013,07,14,13,20,21.20
2013,07,14,13,21,21.20
2013,07,14,13,22,21.30
2013,07,14,13,23,21.30
2013,07,14,13,24,21.30
2013,07,14,13,25,21.30
2013,07,14,13,26,21.30
2013,07,14,13,27,21.30
2013,07,14,13,28,21.30
2013,07,14,13,29,21.10
2013,07,14,13,30,21.10
2013,07,14,13,31,21.10
2013,07,14,13,32,21.30
2013,07,14,13,33,21.30
2013,07,14,13,34,21.40
2013,07,14,13,35,21.50
2013,07,14,13,36,21.70
2013,07,14,13,37,21.90
2013,07,14,13,38,21.90
2013,07,14,13,39,22.00
2013,07,14,13,40,22.20
2013,07,14,13,41,22.30
2013,07,14,13,42,22.30
2013,07,14,13,43,22.30
2013,07,14,13,44,22.10
2013,07,14,13,45,22.00
2013,07,14,13,46,21.90
2013,07,14,13,47,21.80
2013,07,14,13,48,21.80
2013,07,14,13,49,21.80
2013,07,14,13,50,21.80
2013,07,14,13,51,21.90
2013,07,14,13,52,21.90
2013,07,14,13,53,21.90
2013,07,14,13,54,21.90
2013,07,14,13,55,21.90
2013,07,14,13,56,21.90
2013,07,14,13,57,22.00
2013,07,14,13,58,22.00
2013,07,14,13,59,22.00
2013,07,14,14,00,22.10
2013,07,14,14,01,22.00
2013,07,14,14,02,22.00
2013,07,14,14,03,22.00
2013,07,14,14,04,22.00
2013,07,14,14,05,22.00
2013,07,14,14,06,22.10
2013,07,14,14,07,22.10
2013,07,14,14,08,22.10
2013,07,14,14,09,22.10
2013,07,14,14,10,22.10
2013,07,14,14,11,22.10
2013,07,14,14,12,22.10
2013,07,14,14,13,22.00
2013,07,14,14,14,22.00
2013,07,14,14,15,21.90
2013,07,14,14,16,22.00
2013,07,14,14,17,21.90
2013,07,14,14,18,21.80
2013,07,14,14,19,21.90
2013,07,14,14,20,21.90
2013,07,14,14,21,21.90
2013,07,14,14,22,21.90
2013,07,14,14,23,22.00
2013,07,14,14,24,22.10
2013,07,14,14,25,22.10
2013,07,14,14,26,22.10
2013,07,14,14,27,22.00
2013,07,14,14,28,22.00
2013,07,14,14,29,22.00
2013,07,14,14,30,22.00
2013,07,14,14,31,22.00
2013,07,14,14,32,22.20
2013,07,14,14,33,22.30
2013,07,14,14,34,22.20
2013,07,14,14,35,22.10
2013,07,14,14,36,22.00
2013,07,14,14,37,22.00
2013,07,14,14,38,22.10
2013,07,14,14,39,22.10
2013,07,14,14,40,22.10
2013,07,14,14,41,22.20
2013,07,14,14,42,22.20
2013,07,14,14,43,22.30
2013,07,14,14,44,22.40
2013,07,14,14,45,22.40
2013,07,14,14,46,22.40
2013,07,14,14,47,22.50
2013,07,14,14,48,22.60
2013,07,14,14,49,22.60
2013,07,14,14,50,22.70
2013,07,14,14,51,22.60
2013,07,14,14,52,22.60
2013,07,14,14,53,22.60
2013,07,14,14,54,22.60
2013,07,14,14,55,22.60
2013,07,14,14,56,22.50
2013,07,14,14,57,22.60
2013,07,14,14,58,22.60
2013,07,14,14,59,22.60
2013,07,14,15,00,22.70
2013,07,14,15,01,22.70
2013,07,14,15,02,22.70
2013,07,14,15,03,22.70
2013,07,14,15,04,22.60
2013,07,14,15,05,22.60
2013,07,14,15,06,22.70
2013,07,14,15,07,22.70
2013,07,14,15,08,22.80
2013,07,14,15,09,22.80
2013,07,14,15,10,22.80
2013,07,14,15,11,22.80
2013,07,14,15,12,22.80
2013,07,14,15,13,22.90
2013,07,14,15,14,22.90
2013,07,14,15,15,22.80
2013,07,14,15,16,22.70
2013,07,14,15,17,22.60
2013,07,14,15,18,22.50
2013,07,14,15,19,22.40
2013,07,14,15,20,22.40
2013,07,14,15,21,22.50
2013,07,14,15,22,22.60
2013,07,14,15,23,22.60
2013,07,14,15,24,22.60
2013,07,14,15,25,22.50
2013,07,14,15,26,22.50
2013,07,14,15,27,22.60
2013,07,14,15,28,22.60
2013,07,14,15,29,22.60
2013,07,14,15,30,22.70
2013,07,14,15,31,22.70
2013,07,14,15,32,22.70
2013,07,14,15,33,22.80
2013,07,14,15,34,22.80
2013,07,14,15,35,22.90
2013,07,14,15,36,22.90
2013,07,14,15,37,22.90
2013,07,14,15,38,22.90
2013,07,14,15,39,22.90
2013,07,14,15,40,22.90
2013,07,14,15,41,22.90
2013,07,14,15,42,22.80
2013,07,14,15,43,22.80
2013,07,14,15,44,22.70
2013,07,14,15,45,22.70
2013,07,14,15,46,22.70
2013,07,14,15,47,22.60
2013,07,14,15,48,22.60
2013,07,14,15,49,22.60
2013,07,14,15,50,22.60
2013,07,14,15,51,22.60
2013,07,14,15,52,22.60
2013,07,14,15,53,22.60
2013,07,14,15,54,22.60
2013,07,14,15,55,22.60
2013,07,14,15,56,22.50
2013,07,14,15,57,22.50
2013,07,14,15,58,22.60
2013,07,14,15,59,22.70
2013,07,14,16,00,22.60
2013,07,14,16,01,22.50
2013,07,14,16,02,22.50
2013,07,14,16,03,22.50
2013,07,14,16,04,22.50
2013,07,14,16,05,22.50
2013,07,14,16,06,22.50
2013,07,14,16,07,22.40
2013,07,14,16,08,22.50
2013,07,14,16,09,22.50
2013,07,14,16,10,22.60
2013,07,14,16,11,22.70
2013,07,14,16,12,22.70
2013,07,14,16,13,22.60
2013,07,14,16,14,22.50
2013,07,14,16,15,22.40
2013,07,14,16,16,22.40
2013,07,14,16,17,22.40
2013,07,14,16,18,22.30
2013,07,14,16,19,22.30
2013,07,14,16,20,22.30
2013,07,14,16,21,22.30
2013,07,14,16,22,22.20
2013,07,14,16,23,22.20
2013,07,14,16,24,22.20
2013,07,14,16,25,22.20
2013,07,14,16,26,22.20
2013,07,14,16,27,22.10
2013,07,14,16,28,22.00
2013,07,14,16,29,21.90
2013,07,14,16,30,21.90
2013,07,14,16,31,21.90
2013,07,14,16,32,21.90
2013,07,14,16,33,22.00
2013,07,14,16,34,22.00
2013,07,14,16,35,22.00
2013,07,14,16,36,22.00
2013,07,14,16,37,22.10
2013,07,14,16,38,22.10
2013,07,14,16,39,22.10
2013,07,14,16,40,22.00
2013,07,14,16,41,21.90
2013,07,14,16,42,21.90
2013,07,14,16,43,21.90
2013,07,14,16,44,21.90
2013,07,14,16,45,21.90
2013,07,14,16,46,21.90
2013,07,14,16,47,21.80
2013,07,14,16,48,21.70
2013,07,14,16,49,21.70
2013,07,14,16,50,21.70
2013,07,14,16,51,21.70
2013,07,14,16,52,21.70
2013,07,14,16,53,21.70
2013,07,14,16,54,21.70
2013,07,14,16,55,21.70
2013,07,14,16,56,21.60
2013,07,14,16,57,21.70
2013,07,14,16,58,21.70
2013,07,14,16,59,21.70
2013,07,14,17,00,21.70
2013,07,14,17,01,21.70
2013,07,14,17,02,21.60
2013,07,14,17,03,21.60
2013,07,14,17,04,21.60
2013,07,14,17,05,21.60
2013,07,14,17,06,21.60
2013,07,14,17,07,21.60
2013,07,14,17,08,21.60
2013,07,14,17,09,21.50
2013,07,14,17,10,21.30
2013,07,14,17,11,21.30
2013,07,14,17,12,21.30
2013,07,14,17,13,21.30
2013,07,14,17,14,21.30
2013,07,14,17,15,21.30
2013,07,14,17,16,21.30
2013,07,14,17,17,21.30
2013,07,14,17,18,21.30
2013,07,14,17,19,21.20
2013,07,14,17,20,21.10
2013,07,14,17,21,21.10
2013,07,14,17,22,21.10
2013,07,14,17,23,21.00
2013,07,14,17,24,21.00
2013,07,14,17,25,20.90
2013,07,14,17,26,20.90
2013,07,14,17,27,20.80
2013,07,14,17,28,20.70
2013,07,14,17,29,20.80
2013,07,14,17,30,20.90
2013,07,14,17,31,20.80
2013,07,14,17,32,20.80